Tracking 31027 objects as of 19-Jul-2025
HD Live streaming from Space Station
objects crossing your sky now

SL-8 R/B

Track SL-8 R/B now!
10-day predictions


NORAD ID: 8646
Int'l Code: 1976-011B
Perigee: 988.3 km
Apogee: 996.2 km
Inclination: 83.0 °
Period: 104.8 minutes
Semi major axis: 7363 km
RCS: 4.2529 m2 (large)
Launch date: February 3, 1976
Source: Commonwealth of Independent States (former USSR) (CIS)
Launch site: PLESETSK MISSILE AND SPACE COMPLEX (PKMTR)

Note: This is a ROCKET BODY
Your satellite tracking list
No more satellites can be added for tracking (max 5)
SPACE STATION
EYESAT-1
SAUDISAT 1C
FOX-1B (RADFXSAT AO-91)
DOSAAF-85 (RS-44)
Track 5 satellite(s)




NASA's NSSDC Master Catalog

Two Line Element Set (TLE):
1 08646U 76011B   25199.62041067  .00000040  00000-0  26935-4 0  9994
2 08646  82.9719 316.7657 0005376   3.6951   6.8743 13.74043158478915
Source of the keplerian elements: AFSPC